Regional Weather Roundup
Issued by NWS Boston, MA

Current Version | Previous Version | Graphics & Text | Print | Product List | Glossary Off
Versions: 1 2 3 4 5 6 7 8 9 10 11 12 13 14 15 16 17 18 19 20 21 22 23 24 25 26 27
000 ASUS41 KBOX 180510 RWRBOX REGIONAL WEATHER ROUNDUP NATIONAL WEATHER SERVICE BOSTON/NORTON MA 100 AM EDT MON JUN 18 2018 NOTE: "FAIR" INDICATES FEW OR NO CLOUDS BELOW 12,000 FEET WITH NO SIGNIFICANT WEATHER AND/OR OBSTRUCTIONS TO VISIBILITY. MAZALL-180600- EASTERN MASSACHUSETTS CITY SKY/WX TMP DP RH WIND PRES REMARKS BOSTON FAIR 69 54 58 SW12 30.03S BEVERLY FAIR 65 55 70 S5 30.02S LAWRENCE FAIR 67 55 65 SW5 30.04R BEDFORD FAIR 66 56 70 SW5 30.02R BLUE HILL N/A 65 56 72 S15G22 30.04S NORWOOD FAIR 65 58 78 S5 30.04S MARSHFIELD FAIR 66 59 77 SW7G14 30.04F PLYMOUTH FAIR 64 60 87 S6 30.07R TAUNTON FAIR 63 59 87 S3 30.06S NEW BEDFORD FAIR 61 61 100 SW3 30.07S $$ MAZALL-180600- CAPE COD AND THE ISLANDS CITY SKY/WX TMP DP RH WIND PRES REMARKS FALMOUTH FAIR 61 59 94 SW6 30.09R HYANNIS FAIR 65 62 90 SW8 30.06S CHATHAM FAIR 64 61 90 SW7 30.08S PROVINCETOWN FAIR 63 60 90 S10 30.06F NANTUCKET FAIR 60 60 100 SW6 30.08F MARTHAS VNYRD FAIR 61 61 100 SW5 30.08S $$ MAZALL-180600- CENTRAL AND WESTERN MASSACHUSETTS CITY SKY/WX TMP DP RH WIND PRES REMARKS WORCESTER FAIR 67 52 58 SW10 30.06S FITCHBURG FAIR 71 54 54 S5 30.03S ORANGE FAIR 61 59 93 CALM 30.06R SPRINGFIELD NOT AVBL WESTFIELD FAIR 67 56 67 S6 30.04R NORTH ADAMS FAIR 63 54 72 VRB5 30.04R PITTSFIELD FAIR 62 55 77 CALM 30.06S $$ RIZALL-180600- RHODE ISLAND CITY SKY/WX TMP DP RH WIND PRES REMARKS PROVIDENCE FAIR 63 60 90 SW3 30.07S NEWPORT FAIR 64 62 93 VRB6 30.07S BLOCK ISLAND FAIR 65 63 93 SW14 30.09S SMITHFIELD FAIR 65 55 70 S5 30.07S WESTERLY FAIR 65 63 93 SW3 30.09R $$ CTZALL-180600- CONNECTICUT CITY SKY/WX TMP DP RH WIND PRES REMARKS BRADLEY INTL FAIR 69 56 62 S9 30.04S HARTFORD FAIR 69 57 65 S5 30.05R BRIDGEPORT FAIR 69 62 78 SW5 30.07R GROTON FAIR 62 59 90 CALM 30.07R NEW HAVEN FAIR 66 61 84 S5 30.07S CHESTER FAIR 68 61 77 SW7 30.08S MERIDEN FAIR 64 57 78 S3 30.07R WILLIMANTIC FAIR 64 59 83 CALM 30.07S OXFORD FAIR 67 57 70 SW3 30.09S $$ MEZ002-015-021-024-NHZ003-005-008-011-012-014-VTZ005-008-180600- NORTHERN NEW ENGLAND CITY SKY/WX TMP DP RH WIND PRES REMARKS PORTLAND ME FOG 55 55 100 VRB5 30.03F VSB 1 BANGOR ME MOCLDY 54 51 90 S8 30.03F CONCORD NH FAIR 60 55 83 CALM 30.02S MANCHESTER NH MOCLDY 68 55 63 CALM 30.01R NASHUA NH FAIR 62 57 83 CALM 30.03S PORTSMOUTH NH NOT AVBL JAFFREY NH FAIR 69 57 65 SW6 30.06R KEENE NH FAIR 61 56 83 CALM 30.04R BURLINGTON VT FAIR 77 48 35 S13 29.93F MT. WASHINGTON MOCLDY 54 39 58 W41 N/A $$ NYZ052-076-180600- EASTERN NEW YORK CITY SKY/WX TMP DP RH WIND PRES REMARKS ALBANY FAIR 75 57 53 S10 30.01R NEW YORK CITY FAIR 77 59 53 SW10 30.06R $$ ANZALL-180600- MARINE OBSERVATIONS STATION/POSITION TIME TEMP WIND PRES VSBY WAVE AIR SEA DIR/SP/G HT/PER (UTC) (F) (DEG/KT/KT) (MB) (MI) (FT/S) BOSTON BUOY 0450 65 62 170/ 10/ 12 1016.6F 1/ 7 BUZZARDS BAY 0400 63 210/ 11/ 12 1019.2F NANTUCKET SOUND 0450 63 64 220/ 12/ 14 1018.3R 1 MASS BAY-STELLWA 0404 61 59 1015.1F 2/ 3 ISLE OF SHOALS 0400 62 250/ 4/ 4 1015.9F S OF BLOCK IS 0443 60 N/A 2/ 8 $$ ......................KEY......................... SKY/WX - SKY CONDITION/PRESENT WEATHER TMP - TEMPERATURE IN FAHRENHEIT DWPT - DEWPOINT IN FAHRENHEIT RH - RELATIVE HUMIDITY IN PERCENT WIND - DIRECTION AND SPEED IN MPH PRES - MEAN SEA LEVEL PRESSURE IN INCHES OF HG WCI - WIND CHILL INDEX VSB - VISIBILITY IN MILES HX - HEAT INDEX TC - TEMPERATURE IN CELSIUS VRB - VARIABLE WIND DIRECTION N/A - NOT AVAILABLE

USA.gov is the U.S. government's official web portal to all federal, state and local government web resources and services.